[Iaude] MPEC S53: 2016 SG1

mpec at si.edu mpec at si.edu
Thu Sep 29 16:05:58 EDT 2016


M.P.E.C. 2016-S53                                Issued 2016 Sept. 26, 18:13 UT
 
     The Minor Planet Electronic Circulars contain information on unusual
         minor planets and routine data on comets.  They are published
    on behalf of Division F of the International Astronomical Union by the
          Minor Planet Center, Smithsonian Astrophysical Observatory,
                          Cambridge, MA 02138, U.S.A.

             Prepared using the Tamkin Foundation Computer Network

                              MPC at CFA.HARVARD.EDU
            URL http://www.minorplanetcenter.net/    ISSN 1523-6714


                                   2016 SG1
 
Observations:
     K16S01G* S2016 09 22.21907 06 03 54.74 -14 25 44.7          20   RLES053C51
     K16S01G  s2016 09 22.21907 1 - 1747.4906 + 6370.2056 - 1868.8138   ES053C51
     K16S01G  S2016 09 22.54659 06 04 48.32 -14 34 11.4                LES053C51
     K16S01G  s2016 09 22.54659 1 - 1787.1344 + 6363.6171 - 1853.7507   ES053C51
     K16S01G  S2016 09 22.61204 06 04 59.05 -14 35 52.3                LES053C51
     K16S01G  s2016 09 22.61204 1 - 1801.7656 + 6369.5602 - 1818.7178   ES053C51
     K16S01G  S2016 09 22.61216 06 04 59.09 -14 35 52.7                LES053C51
     K16S01G  s2016 09 22.61216 1 - 1784.9116 + 6351.0273 - 1898.7170   ES053C51
     K16S01G  S2016 09 22.74307 06 05 20.57 -14 39 17.4                LES053C51
     K16S01G  s2016 09 22.74307 1 - 1814.2514 + 6363.1536 - 1828.7872   ES053C51
     K16S01G  S2016 09 22.74320 06 05 20.65 -14 39 16.5                LES053C51
     K16S01G  s2016 09 22.74320 1 - 1797.3209 + 6344.5402 - 1908.7514   ES053C51
     K16S01G  S2016 09 22.80865 06 05 31.26 -14 40 58.3                LES053C51
     K16S01G  s2016 09 22.80865 1 - 1812.0357 + 6350.7315 - 1873.8277   ES053C51
     K16S01G  S2016 09 22.87410 06 05 42.06 -14 42 41.5                LES053C51
     K16S01G  s2016 09 22.87410 1 - 1826.7075 + 6356.7035 - 1838.8803   ES053C51
     K16S01G  S2016 09 22.93968 06 05 52.77 -14 44 23.2                LES053C51
     K16S01G  s2016 09 22.93968 1 - 1824.4382 + 6344.2172 - 1883.9118   ES053C51
     K16S01G  S2016 09 23.00513 06 06 03.58 -14 46 05.6                LES053C51
     K16S01G  s2016 09 23.00513 1 - 1839.1399 + 6350.2157 - 1848.9654   ES053C51
     K16S01G  S2016 09 23.13616 06 06 25.20 -14 49 31.5                LES053C51
     K16S01G  s2016 09 23.13616 1 - 1851.5344 + 6343.6752 - 1859.1086   ES053C51
     K16S01G  S2016 09 23.13629 06 06 25.21 -14 49 31.3                LES053C51
     K16S01G  s2016 09 23.13629 1 - 1834.3721 + 6324.8211 - 1938.9654   ES053C51
     K16S01G  S2016 09 23.20174 06 06 36.07 -14 51 14.0                LES053C51
     K16S01G  s2016 09 23.20174 1 - 1849.1562 + 6331.0588 - 1904.1279   ES053C51
     K16S01G KC2016 09 24.50836 06 10 13.58 -15 25 54.9          20.5 RoES053291
     K16S01G KC2016 09 24.51285 06 10 14.32 -15 26 02.1                oES053291
     K16S01G KC2016 09 25.08462906 11 50.58 -15 41 18.5          20.0 RtES053K93
     K16S01G KC2016 09 25.08996306 11 51.47 -15 41 27.2          19.9 RtES053K93
     K16S01G KC2016 09 25.09396606 11 52.13 -15 41 33.5          19.9 RtES053K93
     K16S01G KC2016 09 25.45064 06 12 52.48 -15 51 21.9          20.9 RoES053291
     K16S01G KC2016 09 25.45386 06 12 53.01 -15 51 26.7                oES053291
     K16S01G KC2016 09 25.45741 06 12 53.62 -15 51 32.5          20.8 RoES053291
 
Observer details:
291 LPL/Spacewatch II.  Observer T. H. Bressi.  1.8-m f/2.7 reflector + CCD.
K93 Sutherland-LCOGT C.  Observers T. Lister, S. Greenstreet, E. Gomez.
    Measurer T. Lister.  1.0-m f/8 Ritchey-Chretien + CCD.
C51 WISE.  Measurers A. K. Mainzer, J. M. Bauer, T. Grav, J. R. Masiero,
    J. W. Dailey, R. M. Cutri, E. L. Wright, C. Nugent, S. Sonnett, E. Kramer.
 
Orbital elements:
2016 SG1                                                 Earth MOID = 0.3720 AU
Epoch 2016 July 31.0 TT = JDT 2457600.5                 MPC
M 303.19799              (2000.0)            P               Q
n   0.36186465     Peri.  358.19072     -0.99156844     -0.11489282
a   1.9503173      Node   174.09931     +0.12500694     -0.96993124
e   0.6804519      Incl.   35.65870     +0.03413627     +0.21455308
P   2.72           H   17.6           G   0.15           U   9
Residuals in seconds of arc
160922 C51  0.3-  0.3-    160922 C51  0.0   0.5-    160924 291  0.2+  0.1+
160922 C51  0.1+  0.2-    160922 C51  1.1-  0.2+    160925 K93  0.0   0.2-
160922 C51  0.2+  0.6+    160923 C51  0.6-  0.1+    160925 K93  0.0   0.2-
160922 C51  0.5+  0.3+    160923 C51  0.2-  0.5-    160925 K93  0.1-  0.0
160922 C51  0.6+  0.7-    160923 C51  0.3-  0.2-    160925 291  0.1+  0.3-
160922 C51  1.4+  0.3+    160923 C51  0.6+  0.1-    160925 291  0.1-  0.1+
160922 C51  0.6-  0.5+    160924 291  0.2+  0.0     160925 291  0.2+  0.2+

Ephemeris:
2016 SG1                 a,e,i = 1.95, 0.68, 36                  q = 0.6232
Date    TT    R. A. (2000) Decl.     Delta      r     Elong.  Phase     V
2016 08 27    05 00 40.4 -05 42 37   1.7066  1.8560    81.9    32.6    21.5
...
2016 09 11    05 35 06.4 -10 06 09   1.4574  1.7199    86.5    35.7    21.1
...
2016 09 19    05 55 18.6 -13 05 23   1.3342  1.6438    88.1    37.6    20.8
...
2016 09 25    06 11 35.9 -15 39 02   1.2475  1.5850    88.9    39.2    20.6
2016 09 26    06 14 25.5 -16 06 17   1.2336  1.5751    88.9    39.5    20.6
2016 09 27    06 17 17.1 -16 34 00   1.2198  1.5651    89.0    39.8    20.6
...
2016 10 03    06 35 14.9 -19 30 00   1.1406  1.5044    89.0    41.7    20.4
...
2016 10 11    07 01 46.2 -23 48 45   1.0449  1.4212    88.1    44.6    20.2
...
2016 10 26    08 03 05.1 -32 42 45   0.8999  1.2589    83.2    51.6    19.8

Gareth V. Williams           (C) Copyright 2016 MPC           M.P.E.C. 2016-S53




More information about the Iaude mailing list